Regional Weather Roundup
Issued by NWS

Home | Current Version | Previous Version | Text Only | Print | Product List | Glossary Off
Versions: 1 2 3 4 5 6 7 8 9 10 11 12 13 14 15 16 17 18 19 20 21 22 23 24 25 26 27 28 29 30 31 32 33 34 35 36 37 38 39 40 41 42 43 44 45 46 47 48 49 50

742
ASUS43 KIND 250709
RWRIN

WEATHER ROUNDUP FOR INDIANA
NATIONAL WEATHER SERVICE INDIANAPOLIS IN
300 AM EDT FRI MAY 25 2018

NOTE: "FAIR" INDICATES FEW OR NO CLOUDS BELOW 12,000 FEET WITH NO
SIGNIFICANT WEATHER AND/OR OBSTRUCTIONS TO VISIBILITY.

* - STATION DOES NOT REPORT WEATHER SUCH AS PRECIPITATION OR FOG.

+ - STATION NOT QUALITY CONTROLLED BY THE NATIONAL WEATHER SERVICE.
    USE DATA WITH CAUTION...ESPECIALLY DEWPOINT AND RELATIVE
    HUMIDITY OBSERVATIONS.

INZ001>003-010>013-019-020-250800-
NORTHWEST INDIANA

CITY           SKY/WX    TMP DP  RH WIND       PRES   REMARKS
GARY /AIRPORT/ FAIR      62  54  73 S3        30.02F
KNOX *+        FAIR      61  50  67 CALM      30.03F
LA PORTE +     FAIR      62  53  71 CALM      30.04F
MICHIGAN CITY+ FAIR      68  45  42 S5        30.03F
MONTICELLO +   FAIR      62  52  70 SE5       30.03F
RENSSELAER +   FAIR      64  41  42 CALM      30.03F
VALPARAISO     FAIR      68  49  50 CALM      30.04F

$$

LMZ046-743>745-250800-
SOUTHERN LAKE MICHIGAN

STATION/POSITION TIME  TEMP    WIND        PRES    WAVE
                       AIR SEA DIR/SP/G            HT
                 (UTC) (F)     (DEG/KT/KT) (MB)    (FT)
BURNS HARBOR     0640   70     180/  4/  8 1016.9F
MICHIGAN CITY    0640   72     140/ 11/ 14   N/A
5NW MICH CITY    0700   64 60  190/  4/  4   N/A     0

$$

INZ004-005-014>016-021>024-250800-
NORTH CENTRAL INDIANA

CITY           SKY/WX    TMP DP  RH WIND       PRES   REMARKS
GOSHEN         FAIR      58  54  86 CALM      30.04F
LOGANSPORT +   FAIR      61  48  63 SE3       30.05F
PERU/GRISSOM   FAIR      62  52  71 SE3       30.04F
ROCHESTER +    FAIR      61  54  77 CALM      30.05F
SOUTH BEND     FAIR      60  52  74 CALM      30.04F
WARSAW +       FAIR      55  54  94 CALM      30.06S

$$

INZ006>009-017-018-025>027-250800-
NORTHEAST INDIANA

CITY           SKY/WX    TMP DP  RH WIND       PRES   REMARKS
ANGOLA *+      FAIR      57  55  94 CALM      30.06F
AUBURN +       FAIR      54  52  94 CALM      30.07F
FORT WAYNE     FAIR      62  52  69 S3        30.06F
HUNTINGTON +   FAIR      57  56  95 CALM      30.06S
KENDALLVILLE + FAIR     N/A N/A N/A CALM      30.06F

$$

INZ028-029-035-036-043>045-051>053-250800-
WEST CENTRAL INDIANA

CITY           SKY/WX    TMP DP  RH WIND       PRES   REMARKS
CRAWFORDSVL +  FAIR      57  54  90 CALM      30.06S
GREENCASTLE +  FAIR      57  52  82 CALM      30.06F
LAFAYETTE      FAIR      58  52  80 CALM      30.03F
TERRE HAUTE    FAIR      60  55  83 CALM      30.04F

$$

INZ030>032-037>040-046>048-054>057-064-065-250800-
CENTRAL INDIANA

CITY           SKY/WX    TMP DP  RH WIND       PRES   REMARKS
ANDERSON       FAIR      57  53  85 CALM      30.07F
FISHERS *+     FAIR      59  55  88 CALM      30.06F
FRANKFORT +    FAIR      62  53  71 S3        30.07F
GREENWOOD *+   FAIR      61  55  81 CALM      30.06F
INDIANAPOLIS   FAIR      67  53  61 CALM      30.05F
-EAGLE CREEK   FAIR      62  54  74 CALM      30.05F
KOKOMO +       FAIR      63  52  67 CALM      30.06F
MARION +       FAIR      59  53  78 CALM      30.07F
MT COMFORT *+  FAIR      57  57 100 CALM      30.07F
SHELBYVILLE    FAIR      62  55  77 CALM      30.06F
ZIONSVILLE +   FAIR      58  55  90 CALM      30.07F

$$

INZ033-034-041-042-049-050-058-059-250800-
EAST CENTRAL INDIANA

CITY           SKY/WX    TMP DP  RH WIND       PRES   REMARKS
MUNCIE         FAIR      60  53  77 CALM      30.07S
RICHMOND +     FAIR      61  54  77 CALM      30.08F

$$

INZ060-061-067>069-081>083-085>088-250800-
SOUTHWEST INDIANA

CITY           SKY/WX    TMP DP  RH WIND       PRES   REMARKS
EVANSVILLE     FAIR      65  62  90 CALM      30.04F
HUNTINGBURG +  FAIR      61  59  93 CALM      30.05F
WASHINGTON +   FAIR      61  55  79 CALM      30.04F

$$

INZ062-063-066-070>080-084-089>092-250800-
SOUTH CENTRAL AND SOUTHEAST INDIANA

CITY           SKY/WX    TMP DP  RH WIND       PRES   REMARKS
BATESVILLE +   CLEAR     57  57 100 CALM      30.07F
BEDFORD +      FAIR      59  55  88 CALM      30.05F
BLOOMINGTON    FAIR      59  57  93 CALM      30.05F
FRENCH LICK *+ FAIR      64  46  52 CALM      30.06F
MADISON *+     FAIR      59  57  94 CALM      30.08F
NORTH VERNON + FAIR      57  55  94 CALM      30.06F
SEYMOUR +      FAIR      61  59  94 CALM      30.05F

$$





USA.gov is the U.S. government's official web portal to all federal, state and local government web resources and services.